Date String (YYYY-MM-DD hh:mm:ss) UTC,Instrument flags,absolute air pressure of the measurement (hPa),sample flow rate (lpm),inlet stack bypass flow (lpm),air temperature of the measurement (°C),ambient temperature measured by the external sensor (°C),aerosol sample conditioner tube jacket temperature (°C),OPC LED temperature (°C),internal box temperature (°C),relative humidity of the measurement (%),span deviation,mass concentration of particles derived from Lorenz-Mie calculation of OPC scattering (μg/m³),mass concentration of particles derived from Lorenz-Mie calculation of OPC scattering (μg/m³),mass concentration of particles derived from Lorenz-Mie calculation of OPC scattering (μg/m³)
DateTimeUTC,F1_M11,P_M11,Q1_M11,Q2_M11,T1_M11,T2_M11,T3_M11,T4_M11,T5_M11,U1_M11,ZSPAN_M11,X0_M11,X2_M11,X1_M11
2023-12-18 18:00:00,SystemResetWarning,0832.2,5.02,000.00,021.2,020.7,000.0,029.3,022.6,11.7,0000.0,0004.27,0002.57,0002.18
2023-12-18 18:01:00,SystemResetWarning,0832.2,4.99,000.00,021.2,020.7,000.0,029.3,022.6,11.7,0000.0,0005.53,0002.61,0002.21
2023-12-18 18:02:00,SystemResetWarning,0832.1,5.00,000.00,021.3,020.7,000.0,029.3,022.7,11.9,0000.0,0005.03,0002.65,0002.25
2023-12-18 18:03:00,SystemResetWarning,0832.0,5.01,000.00,021.3,020.8,000.0,029.3,022.7,12.0,0000.0,0004.97,0002.69,0002.29
2023-12-18 18:04:00,SystemResetWarning,0832.0,5.01,000.00,021.3,020.8,000.0,029.4,022.7,12.0,0000.0,0005.13,0002.74,0002.33
2023-12-18 18:05:00,SystemResetWarning,0832.0,4.97,000.00,021.3,020.8,000.0,029.4,022.8,12.0,0000.0,0005.19,0002.80,0002.40
2023-12-18 18:06:00,SystemResetWarning,0832.0,5.00,000.00,021.3,020.8,000.0,029.4,022.8,12.1,0000.0,0005.26,0002.85,0002.46
2023-12-18 18:07:00,SystemResetWarning,0831.9,5.01,000.00,021.4,020.8,000.0,029.4,022.8,12.2,0000.0,0005.38,0002.93,0002.52
2023-12-18 18:08:00,SystemResetWarning,0831.9,5.01,000.00,021.4,020.9,000.0,029.4,022.9,12.1,0000.0,0005.69,0003.06,0002.59
2023-12-18 18:09:00,SystemResetWarning,0831.9,4.99,000.00,021.4,020.9,000.0,029.5,022.8,11.9,0000.0,0006.46,0003.12,0002.63
2023-12-18 18:10:00,SystemResetWarning,0831.8,5.00,000.00,021.4,020.9,000.0,029.5,022.9,12.0,0000.0,0007.03,0003.21,0002.67
2023-12-18 18:11:00,SystemResetWarning,0831.9,5.00,000.00,021.5,020.9,000.0,029.5,022.9,11.7,0000.0,0007.01,0003.23,0002.68
2023-12-18 18:12:00,SystemResetWarning,0831.9,5.00,000.00,021.5,021.0,000.0,029.5,022.9,11.6,0000.0,0005.97,0003.26,0002.72
2023-12-18 18:13:00,SystemResetWarning,0832.2,5.00,000.00,021.5,021.0,000.0,029.6,022.9,11.5,0000.0,0006.08,0003.27,0002.74
2023-12-18 18:14:00,SystemResetWarning,0832.1,5.00,000.00,021.5,021.0,000.0,029.6,023.0,11.4,0000.0,0007.07,0003.30,0002.78
2023-12-18 18:15:00,SystemResetWarning,0831.8,5.01,000.00,021.5,021.0,000.0,029.6,023.0,11.6,0000.0,0007.88,0003.32,0002.81
2023-12-18 18:16:00,SystemResetWarning,0831.7,4.99,000.00,021.6,021.0,000.0,029.6,023.0,11.7,0000.0,0011.92,0003.66,0002.95
2023-12-18 18:17:00,SystemResetWarning,0831.7,4.99,000.00,021.6,021.1,000.0,029.6,023.0,11.5,0000.0,0014.10,0004.02,0003.05
2023-12-18 18:18:00,SystemResetWarning,0831.7,5.01,000.00,021.6,021.1,000.0,029.7,023.0,10.9,0000.0,0014.28,0004.08,0003.05
2023-12-18 18:19:00,SystemResetWarning,0831.7,5.01,000.00,021.6,021.1,000.0,029.7,023.1,11.0,0000.0,0016.84,0004.51,0003.13
2023-12-18 18:20:00,SystemResetWarning,0831.6,5.00,000.00,021.7,021.1,000.0,029.7,023.1,11.5,0000.0,0020.83,0005.23,0003.24
2023-12-18 18:21:00,SystemResetWarning,0831.6,4.98,000.00,021.7,021.2,000.0,029.7,023.1,11.7,0000.0,0020.97,0005.30,0003.27
2023-12-18 18:22:00,SystemResetWarning,0831.6,5.00,000.00,021.7,021.2,000.0,029.7,023.1,11.6,0000.0,0021.08,0005.30,0003.28
2023-12-18 18:23:00,SystemResetWarning,0831.6,5.01,000.00,021.7,021.2,000.0,029.8,023.2,11.4,0000.0,0023.01,0005.52,0003.30
2023-12-18 18:24:00,SystemResetWarning,0831.6,5.01,000.00,021.7,021.2,000.0,029.8,023.2,11.0,0000.0,0025.11,0005.70,0003.33
2023-12-18 18:25:00,SystemResetWarning,0831.6,4.99,000.00,021.8,021.2,000.0,029.8,023.2,11.1,0000.0,0030.46,0006.21,0003.41
2023-12-18 18:26:00,SystemResetWarning,0831.6,4.99,000.00,021.8,021.3,000.0,029.8,023.2,11.1,0000.0,0032.72,0006.40,0003.44
2023-12-18 18:27:00,SystemResetWarning,0831.6,5.00,000.00,021.8,021.3,000.0,029.8,023.2,11.4,0000.0,0029.80,0006.30,0003.42
2023-12-18 18:28:00,SystemResetWarning,0831.6,5.00,000.00,021.8,021.3,000.0,029.9,023.3,11.0,0000.0,0027.06,0005.97,0003.36
2023-12-18 18:29:00,SystemResetWarning,0831.6,4.99,000.00,021.9,021.3,000.0,029.9,023.3,11.0,0000.0,0028.84,0006.21,0003.42
2023-12-18 18:30:00,SystemResetWarning,0831.5,5.01,000.00,021.9,021.3,000.0,029.9,023.3,11.0,0000.0,0035.19,0007.11,0003.60
2023-12-18 18:31:00,SystemResetWarning,0831.5,5.01,000.00,021.9,021.4,000.0,029.9,023.3,10.9,0000.0,0030.56,0006.28,0003.47
2023-12-18 18:32:00,SystemResetWarning,0831.5,5.00,000.00,021.9,021.4,000.0,029.9,023.3,10.8,0000.0,0030.19,0006.21,0003.44
2023-12-18 18:33:00,SystemResetWarning,0831.5,5.00,000.00,021.9,021.4,000.0,030.0,023.4,10.9,0000.0,0030.21,0006.17,0003.42
2023-12-18 18:34:00,SystemResetWarning,0831.5,4.98,000.00,022.0,021.4,000.0,030.0,023.4,10.7,0000.0,0029.78,0005.97,0003.39
2023-12-18 18:35:00,SystemResetWarning,0831.5,4.99,000.00,022.0,021.4,000.0,030.0,023.4,10.6,0000.0,0027.82,0005.77,0003.35
2023-12-18 18:36:00,SystemResetWarning,0831.4,5.01,000.00,022.0,021.5,000.0,030.0,023.4,10.6,0000.0,0022.48,0005.24,0003.24
2023-12-18 18:37:00,SystemResetWarning,0831.4,5.01,000.00,022.0,021.5,000.0,030.1,023.4,10.6,0000.0,0019.06,0004.97,0003.17
2023-12-18 18:38:00,SystemResetWarning,0831.5,4.99,000.00,022.0,021.5,000.0,030.1,023.5,10.6,0000.0,0018.77,0004.89,0003.15
2023-12-18 18:39:00,SystemResetWarning,0831.4,4.99,000.00,022.1,021.5,000.0,030.1,023.5,10.6,0000.0,0018.08,0004.71,0003.11
2023-12-18 18:40:00,SystemResetWarning,0831.4,5.01,000.00,022.1,021.5,000.0,030.1,023.5,10.6,0000.0,0017.34,0004.61,0003.06
2023-12-18 18:41:00,SystemResetWarning,0831.4,5.01,000.00,022.1,021.5,000.0,030.1,023.5,10.5,0000.0,0008.93,0003.31,0002.59
2023-12-18 18:42:00,SystemResetWarning,0831.4,5.00,000.00,022.1,021.6,000.0,030.1,023.5,10.4,0000.0,0007.85,0003.12,0002.52
2023-12-18 18:43:00,SystemResetWarning,0831.4,4.99,000.00,022.1,021.6,000.0,030.2,023.5,10.5,0000.0,0007.37,0002.94,0002.48
2023-12-18 18:44:00,SystemResetWarning,0831.4,4.99,000.00,022.1,021.6,000.0,030.2,023.5,10.5,0000.0,0007.23,0002.87,0002.47
2023-12-18 18:45:00,SystemResetWarning,0831.3,5.01,000.00,022.2,021.6,000.0,030.2,023.6,10.6,0000.0,0005.12,0002.87,0002.47
2023-12-18 18:46:00,SystemResetWarning,0831.3,5.01,000.00,022.2,021.6,000.0,030.2,023.6,10.4,0000.0,0004.78,0002.89,0002.46
2023-12-18 18:47:00,SystemResetWarning,0831.2,4.99,000.00,022.2,021.7,000.0,030.2,023.6,10.4,0000.0,0005.88,0002.89,0002.48
2023-12-18 18:48:00,SystemResetWarning,0831.2,4.99,000.00,022.2,021.7,000.0,030.3,023.7,10.5,0000.0,0005.74,0002.88,0002.48
2023-12-18 18:49:00,SystemResetWarning,0831.2,5.01,000.00,022.2,021.7,000.0,030.3,023.7,10.4,0000.0,0005.44,0002.87,0002.48
2023-12-18 18:50:00,SystemResetWarning,0831.1,5.01,000.00,022.3,021.7,000.0,030.3,023.7,10.4,0000.0,0005.40,0002.87,0002.47
2023-12-18 18:51:00,SystemResetWarning,0831.1,4.99,000.00,022.3,021.7,000.0,030.3,023.7,10.4,0000.0,0005.35,0002.85,0002.48
2023-12-18 18:52:00,SystemResetWarning,0831.1,4.98,000.00,022.3,021.8,000.0,030.3,023.7,10.5,0000.0,0005.53,0002.86,0002.49
2023-12-18 18:53:00,SystemResetWarning,0831.1,5.01,000.00,022.3,021.8,000.0,030.4,023.7,10.4,0000.0,0005.35,0002.86,0002.50
2023-12-18 18:54:00,SystemResetWarning,0831.2,5.01,000.00,022.3,021.8,000.0,030.4,023.8,10.4,0000.0,0005.56,0002.92,0002.51
2023-12-18 18:55:00,SystemResetWarning,0831.1,5.00,000.00,022.4,021.8,000.0,030.4,023.8,10.4,0000.0,0005.82,0002.96,0002.53
2023-12-18 18:56:00,SystemResetWarning,0830.9,4.98,000.00,022.4,021.8,000.0,030.4,023.8,10.4,0000.0,0005.81,0002.94,0002.53
2023-12-18 18:57:00,SystemResetWarning,0830.9,5.01,000.00,022.4,021.8,000.0,030.4,023.8,10.4,0000.0,0005.58,0002.93,0002.54
2023-12-18 18:58:00,SystemResetWarning,0830.9,5.01,000.00,022.4,021.8,000.0,030.5,023.8,10.3,0000.0,0004.54,0002.96,0002.54
2023-12-18 18:59:00,SystemResetWarning,0830.8,5.00,000.00,022.4,021.9,000.0,030.5,023.9,10.4,0000.0,0004.44,0003.00,0002.56
